User: anonymous
Location: Oshawa
(43.9000°N, 78.8670°W)
Time: 11:07:45
(UTC-04:00)
Language:

CARTOSAT-1 - Orbit

View from above orbital plane
View from above orbital plane
View from above satellite
View from above satellite

Ground track
Ground track

The orbit data is extracted from the following two-line orbital elements,

1 28649U 05017A   14238.27968003  .00000637  00000-0  83862-4 0  5370
2 28649 097.8299 310.9129 0002929 090.2623 269.8926 14.83472528503884
Epoch (UTC): 26 August 2014 06:42:44
Eccentricity: 0.0002929
inclination: 97.8299°
perigee height: 616 km
apogee height: 620 km
right ascension of ascending node: 310.9129°
argument of perigee: 90.2623°
revolutions per day: 14.83472528
mean anomaly at epoch: 269.8926°
orbit number at epoch: 50388

The dashed part of the orbit path shows where the satellite is in the earth's shadow,  

DLR